Location: Augustenthal
(51.7167°N, 10.2833°E)
Time: 03:32:07
(UTC+00:00)

Ariane Rocket - Pass Details

Date: 18 May 2021
Orbit: 761 x 769 km, 98.7° (Epoch: 14 June)

Event Time Altitude Azimuth Distance (km) Brightness Sun altitude
Rises 19:51:18 0° 181° (S) 3,214 5.8 -5.8°
Reaches altitude 10° 19:53:41 10° 187° (S) 2,294 5.1 -6.1°
Maximum altitude 19:58:32 46° 261° (W) 1,025 4.0 -6.7°
Drops below altitude 10° 20:03:26 10° 335° (NNW) 2,315 6.9 -7.2°
Sets 20:05:51 0° 341° (NNW) 3,248 7.6 -7.5°
